Tracking 27405 objects as of 1-Jun-2023
HD Live streaming from Space Station
objects crossing your sky now

COSMOS 2251 DEB

Track COSMOS 2251 DEB now!
10-day predictions


NORAD ID: 34755
Int'l Code: 1993-036ZZ
Perigee: 776.9 km
Apogee: 1,399.4 km
Inclination: 73.9 °
Period: 106.9 minutes
Semi major axis: 7459 km
RCS: 0.0048 m2 (small)
Launch date: June 16, 1993
Source: Commonwealth of Independent States (former USSR) (CIS)
Launch site: PLESETSK MISSILE AND SPACE COMPLEX (PKMTR)

Note: This is SATELLITE DEBRIS
Your satellite tracking list
Your tracking list is empty




NASA's NSSDC Master Catalog

Two Line Element Set (TLE):
1 34755U 93036ZZ  23151.79689311  .00001328  00000-0  12908-2 0  9997
2 34755  73.9273 334.2468 0417300 165.9033 209.2176 13.47618802700373
Source of the keplerian elements: AFSPC